CZ-6A DEB, 60800

Orbit data source: Space-Track

CZ-6A DEB, 60800 is space debris in LEO originally from a launch on Tue, 06 Aug 2024 UTC launched from the Taiyaun Space Center, China (TSC). Debris objects in space refer to the collection of defunct objects orbiting the Earth. Examples of debris include non-operational satellites, rocket bodies, and fragments generated from explosions, collisions, or faulty payload assembly.

Loading next visibility...
Identifier
60800, 2024-140GB
Orbit
LEO
Country
Flag of CNCN / PRC
Related business
Manufacturer
SAST
Mission
Spacecraft
Bus & Motor
Unknown
Mass
Unknown
Launch date (UTC)
2024-08-06 (2 years ago)
Launch vehicle
Unknown
Launch site
Taiyaun Space Center, China (TSC)
Object type
Payload
Rocket body
Debris
Shape & HBR
Unknown shape, 0.2 m
Radar Cross Section
Medium (>0.1 m² and <1 m²)

Expand to show TLE details & history
Last TLE update: 14 hours ago

TLE from 14 hours ago
0 CZ-6A DEB
1 60800U 24140GB  26171.24807333  .00000108  00000-0  49427-4 0  9991
2 60800  89.0040 275.4609 0075405 191.7292 168.2141 14.12660276 95611
Epoch: 2026-06-20T05:57Z
TLE epoch observation values (Epoch: 2026-06-20T05:57:13.535Z)
Latitude
-0.00003°
Longitude
-82.31092°
Altitude
906.71 km
Speed
7.371 km/s
True Right ascension
18h 21m 50s
True Declination
0° 00' 00"
Sunlit
Object was in full shadow at epoch
Visualization orbit readout
Latitude
Unknown
Longitude
Unknown
Altitude
Unknown
Speed
Unknown
Apparent Right ascension
Unknown
Apparent Declination
Unknown
Sunlit
N/A
Visualization observer readout
Local Sidereal Time
07:22:02
Azimuth
Unknown
Elevation
Unknown
Doppler factor
Unknown
Orbital elements
Apogee altitude
901.727 km
Perigee altitude
792.761 km
Semi-major axis
7,225.381 km
Eccentricity
0.00754
Inclination
89.004°
RAAN
275.4609°
Arg. of periapsis
191.7292°
True anomaly
168.38898°
Mean anomaly
168.2141°
Eccentric anomaly
168.3017°
Mean motion
3.53388 °/min
Orbital period
101.87 mins
BSTAR
0.000049427
Loading maneuver chart data...
Computing Atmospheric mass density...
Loading historical data...
Loading historical data...
Loading historical data...
Loading historical data...
Loading historical data...
Loading historical data...
Loading historical data...

Documentation

Showing up to 5 results
|